Weather History for KCFV - July, 2013

Change the Weather History Date:

Wednesday, July 24, 2013

  Actual Average Record
Temperature  
Mean Temperature 80 °F -  
Max Temperature 90 °F 89 °F 109 °F (2011)
Min Temperature 71 °F 68 °F 55 °F (2003)
Cooling Degree Days 15    
Growing Degree Days 30 (Base 50)    
Moisture  
Dew Point 69 °F    
Average Humidity 80    
Maximum Humidity 100    
Minimum Humidity 50    
Precipitation  
Precipitation 0.38 in - - ()
Sea Level Pressure  
Sea Level Pressure 29.94 in    
Wind  
Wind Speed 6 mph (North)    
Max Wind Speed 14 mph    
Max Gust Speed 21 mph    
Visibility 9 miles    
Events Rain , Thunderstorm    
Averages and records for this station are not official NWS values.
T = Trace of Precipitation, MM = Missing Value Source: NWS Daily Summary

Daily Weather History Graph

Daily Weather History Graph

Search for Another Location

Airport or City:

Trip Planner

Search our weather history database for the weather conditions in past years. The results will help you decide how hot, cold, wet, or windy it might be!

Date:

Astronomy

Jul. 24, 2013 Rise Set
Actual Time 6:21 AM CDT 8:36 PM CDT
Civil Twilight 5:51 AM CDT 9:05 PM CDT
Nautical Twilight 5:15 AM CDT 9:41 PM CDT
Astronomical Twilight 4:36 AM CDT 10:20 PM CDT
Moon 9:48 PM CDT (7/24) 8:37 AM CDT (7/24)
Length of Visible Light 15h 13m
Length of Day
14h 14m
Waning Gibbous, 94% of the Moon is Illuminated
Jul 24
Waning Gibbous
Jul 29
Last Quarter
Aug 6
New
Aug 14
First Quarter
Aug 20
Full

Hourly Weather History & Observations

Time (CDT) Temp. Heat Index Dew Point Humidity Pressure Visibility Wind Dir Wind Speed Gust Speed Precip Events Conditions
12:23 AM 71.6 °F - 69.8 °F 94% 29.85 in 10.0 mi SE 8.1 mph - 0.03 in Rain Light Rain
12:31 AM 71.6 °F - 69.8 °F 94% 29.85 in 10.0 mi ESE 5.8 mph - 0.03 in Rain , Thunderstorm Light Thunderstorms and Rain
12:52 AM 71.1 °F - 71.1 °F 100% 29.81 in 10.0 mi West 4.6 mph - 0.04 in Rain Light Rain
12:57 AM 71.6 °F - 69.8 °F 94% 29.86 in 10.0 mi WNW 13.8 mph - 0.00 in Rain , Thunderstorm Light Rain
1:21 AM 71.6 °F - 69.8 °F 94% 29.90 in 10.0 mi West 9.2 mph - 0.01 in Rain Light Rain
1:35 AM 71.6 °F - 71.6 °F 100% 29.90 in 10.0 mi Calm Calm - 0.01 in Rain , Thunderstorm Light Rain
1:47 AM 71.6 °F - 71.6 °F 100% 29.91 in 10.0 mi Calm Calm - 0.01 in Rain Light Rain
1:52 AM 72.0 °F - 70.0 °F 93% 29.89 in 10.0 mi Calm Calm - 0.01 in Rain Light Rain
2:12 AM 71.6 °F - 69.8 °F 94% 29.92 in 7.0 mi SSE 5.8 mph - 0.03 in Rain , Thunderstorm Rain
2:49 AM 71.6 °F - 69.8 °F 94% 29.95 in 2.0 mi SE 10.4 mph - 0.28 in Rain , Thunderstorm Heavy Thunderstorms and Rain
2:52 AM 71.1 °F - 69.1 °F 93% 29.91 in 2.5 mi South 13.8 mph - 0.31 in Rain , Thunderstorm Heavy Thunderstorms and Rain
2:59 AM 71.6 °F - 69.8 °F 94% 29.94 in 4.0 mi Variable 5.8 mph - 0.02 in Rain , Thunderstorm Rain
3:07 AM 71.6 °F - 68.0 °F 88% 29.93 in 10.0 mi SSE 9.2 mph - 0.02 in Rain Light Rain
3:52 AM 71.1 °F - 68.0 °F 90% 29.88 in 10.0 mi Calm Calm - 0.02 in   Clear
4:52 AM 71.1 °F - 69.1 °F 93% 29.90 in 10.0 mi Calm Calm - N/A   Clear
5:52 AM 71.1 °F - 68.0 °F 90% 29.94 in 10.0 mi WNW 4.6 mph - N/A   Clear
6:52 AM 71.1 °F - 69.1 °F 93% 29.96 in 10.0 mi West 3.5 mph - N/A   Clear
7:52 AM 72.0 °F - 69.1 °F 91% 29.96 in 10.0 mi NNW 6.9 mph - N/A   Clear
8:52 AM 75.0 °F - 70.0 °F 84% 29.98 in 10.0 mi NNW 9.2 mph - N/A   Clear
9:52 AM 79.0 °F - 69.1 °F 72% 29.98 in 10.0 mi NW 11.5 mph 17.3 mph N/A   Clear
10:52 AM 81.0 °F 83.8 °F 68.0 °F 65% 29.99 in 10.0 mi NW 10.4 mph - N/A   Clear
11:52 AM 82.9 °F 86.5 °F 69.1 °F 63% 29.99 in 10.0 mi NNW 9.2 mph - N/A   Clear
12:52 PM 84.9 °F 88.8 °F 69.1 °F 59% 29.99 in 10.0 mi North 9.2 mph - N/A   Clear
1:52 PM 87.1 °F 91.3 °F 69.1 °F 55% 29.98 in 10.0 mi North 10.4 mph - N/A   Clear
2:52 PM 88.0 °F 92.9 °F 70.0 °F 55% 29.97 in 10.0 mi North 8.1 mph 20.7 mph N/A   Partly Cloudy
3:52 PM 88.0 °F 92.1 °F 69.1 °F 53% 29.97 in 10.0 mi North 10.4 mph - N/A   Clear
4:52 PM 89.1 °F 92.9 °F 68.0 °F 50% 29.95 in 10.0 mi NE 8.1 mph - N/A   Clear
5:52 PM 89.1 °F 92.9 °F 68.0 °F 50% 29.95 in 10.0 mi East 6.9 mph - N/A   Scattered Clouds
6:52 PM 88.0 °F 91.4 °F 68.0 °F 51% 29.93 in 10.0 mi East 6.9 mph - N/A   Partly Cloudy
7:52 PM 84.9 °F 88.8 °F 69.1 °F 59% 29.94 in 10.0 mi East 4.6 mph - N/A   Clear
8:52 PM 81.0 °F 83.8 °F 68.0 °F 65% 29.96 in 10.0 mi Calm Calm - N/A   Clear
9:52 PM 77.0 °F - 69.1 °F 76% 29.97 in 10.0 mi East 4.6 mph - N/A   Clear
10:52 PM 73.9 °F - 70.0 °F 87% 30.00 in 10.0 mi Calm Calm - N/A   Clear
11:52 PM 75.0 °F - 70.0 °F 84% 30.01 in 10.0 mi Calm Calm - N/A   Clear